Retour au catalogue

STARLINK-5935

ActifCommunicationsVLEO
NORAD 56453·PAYLOAD·🇺🇸 United States

Lancé May 10, 2023 depuis Vandenberg Space Force Base

Loading…

Prochains Passages (prochaines 24 heures)

TLE

FraisSource: CelesTrak SupGP

Époque: Sep 14, 2026, 21:27 UTC

1 56453C 23064F   26257.89423611 -.00015251  00000+0 -12781-2 0  2577
2 56453  70.0023  27.5250 0003160 269.2723 107.0361 14.98338339    19

Suivez STARLINK-5935 en temps réel avec AllMySat

Download on the App Store